Hopkins, SC

9:24 AM EST on February 12, 2016 (GMT -0500)
McEntire Angs

Weather History for KMMT - December, 2012

Change the Weather History Date:

Saturday, December 8, 2012

  Actual Average Record
Temperature  
Mean Temperature 58 °F -  
Max Temperature 71 °F 57 °F 82 °F (1998)
Min Temperature 46 °F 38 °F 14 °F (2010)
Degree Days  
Heating Degree Days 6    
Growing Degree Days 8 (Base 50)    
Moisture  
Dew Point 50 °F    
Average Humidity 94    
Maximum Humidity 100    
Minimum Humidity 52    
Precipitation  
Precipitation 0.00 in - - ()
Sea Level Pressure  
Sea Level Pressure 30.05 in    
Wind  
Wind Speed 4 mph (WNW)    
Max Wind Speed 10 mph    
Max Gust Speed -    
Visibility 4 miles    
Events Fog    
Averages and records for this station are not official NWS values.
T = Trace of Precipitation, MM = Missing Value Source: NWS Daily Summary

Daily Weather History Graph

Daily Weather History Graph

Search for Another Location

Airport or City:

Trip Planner

Search our weather history database for the weather conditions in past years. The results will help you decide how hot, cold, wet, or windy it might be!

Date:

Astronomy

Dec. 08, 2012 Rise Set
Actual Time 7:16 AM EST 5:14 PM EST
Civil Twilight 6:48 AM EST 5:41 PM EST
Nautical Twilight 6:17 AM EST 6:12 PM EST
Astronomical Twilight 5:47 AM EST 6:43 PM EST
Moon 1:51 AM EST (12/8) 1:33 PM EST (12/8)
Length of Visible Light 10h 53m
Length of Day
9h 57m
Waning Crescent, 28% of the Moon is Illuminated
Dec 8
Waning Crescent
Dec 13
New
Dec 20
First Quarter
Dec 28
Full
Jan 4
Last Quarter

Hourly Weather History & Observations

Time (EST) Temp. Windchill Dew Point Humidity Pressure Visibility Wind Dir Wind Speed Gust Speed Precip Events Conditions
12:06 AM 48.2 °F - 46.4 °F 93% 30.04 in 2.5 mi Calm Calm - N/A   Overcast
12:10 AM 46.4 °F 45.2 °F 46.4 °F 100% 30.04 in 2.5 mi NW 3.5 mph - N/A   Overcast
12:11 AM 46.4 °F 45.2 °F 46.4 °F 100% 30.04 in 3.0 mi NW 3.5 mph - N/A   Overcast
12:12 AM 46.4 °F 45.2 °F 46.4 °F 100% 30.05 in 3.0 mi NW 3.5 mph - N/A   Overcast
12:13 AM 46.4 °F 45.2 °F 46.4 °F 100% 30.05 in 4.0 mi NW 3.5 mph - N/A   Overcast
12:19 AM 46.4 °F 45.2 °F 46.4 °F 100% 30.04 in 7.0 mi NW 3.5 mph - N/A   Overcast
12:20 AM 46.4 °F 45.2 °F 46.4 °F 100% 30.04 in 7.0 mi NW 3.5 mph - N/A   Overcast
12:26 AM 46.4 °F 44.3 °F 46.4 °F 100% 30.05 in 7.0 mi NW 4.6 mph - N/A   Overcast
12:36 AM 48.2 °F - 48.2 °F 100% 30.04 in 9.0 mi NW 3.5 mph - N/A   Overcast
12:51 AM 50.0 °F - 48.2 °F 94% 30.04 in 2.5 mi NW 3.5 mph - N/A   Overcast
12:53 AM 50.0 °F - 50.0 °F 100% 30.04 in 1.8 mi NW 4.6 mph - N/A   Overcast
12:54 AM 50.0 °F - 50.0 °F 100% 30.04 in 1.5 mi NW 3.5 mph - N/A   Overcast
12:55 AM 49.5 °F - 49.3 °F 99% 30.04 in 1.2 mi NW 3.5 mph - N/A   Overcast
12:57 AM 50.0 °F - 50.0 °F 100% 30.04 in 1.0 mi NW 3.5 mph - N/A   Overcast
1:01 AM 50.0 °F - 50.0 °F 100% 30.04 in 0.8 mi NW 3.5 mph - N/A   Overcast
1:07 AM 50.0 °F - 50.0 °F 100% 30.04 in 0.5 mi NW 3.5 mph - N/A Fog Fog
1:08 AM 50.0 °F - 50.0 °F 100% 30.04 in 0.5 mi Calm Calm - N/A Fog Fog
1:55 AM 51.1 °F - 51.1 °F 100% 30.04 in 0.5 mi West 4.6 mph - N/A Fog Fog
2:26 AM 51.8 °F - 51.8 °F 100% 30.05 in 0.5 mi West 5.8 mph - N/A Fog Fog
2:27 AM 51.8 °F - 51.8 °F 100% 30.04 in 0.8 mi West 6.9 mph - N/A   Mist
2:38 AM 51.8 °F - 51.8 °F 100% 30.04 in 0.5 mi West 4.6 mph - N/A Fog Fog
2:39 AM 51.8 °F - 51.8 °F 100% 30.04 in 0.5 mi West 3.5 mph - N/A Fog Fog
2:55 AM 51.1 °F - 51.1 °F 100% 30.04 in 0.5 mi NW 5.8 mph - N/A Fog Fog
3:08 AM 51.8 °F - 51.8 °F 100% 30.04 in 0.5 mi NW 8.1 mph - N/A Fog Fog
3:11 AM 51.8 °F - 51.8 °F 100% 30.04 in 0.8 mi NW 9.2 mph - N/A   Mist
3:13 AM 51.8 °F - 51.8 °F 100% 30.04 in 1.0 mi WNW 10.4 mph - N/A   Mist
3:15 AM 50.0 °F - 50.0 °F 100% 30.04 in 1.2 mi WNW 9.2 mph - N/A   Overcast
3:16 AM 50.0 °F - 50.0 °F 100% 30.04 in 1.8 mi WNW 9.2 mph - N/A   Overcast
3:17 AM 50.0 °F - 50.0 °F 100% 30.04 in 2.0 mi WNW 8.1 mph - N/A   Overcast
3:19 AM 50.0 °F - 50.0 °F 100% 30.04 in 3.0 mi WNW 8.1 mph - N/A   Overcast
3:24 AM 50.0 °F - 50.0 °F 100% 30.04 in 2.5 mi WNW 4.6 mph - N/A   Overcast
3:29 AM 50.0 °F - 50.0 °F 100% 30.04 in 2.0 mi WNW 5.8 mph - N/A   Overcast
3:35 AM 50.0 °F - 50.0 °F 100% 30.03 in 2.0 mi WNW 6.9 mph - N/A   Overcast
3:47 AM 50.0 °F - 50.0 °F 100% 30.03 in 1.1 mi NW 3.5 mph - N/A   Overcast
3:55 AM 50.5 °F - 50.5 °F 100% 30.03 in 1.1 mi WNW 6.9 mph - N/A   Overcast
4:09 AM 50.0 °F - 50.0 °F 100% 30.03 in 3.0 mi WNW 5.8 mph - N/A   Overcast
4:25 AM 50.0 °F - 50.0 °F 100% 30.03 in 0.9 mi NW 5.8 mph - N/A   Overcast
4:33 AM 50.0 °F - 50.0 °F 100% 30.03 in 0.2 mi NW 4.6 mph - N/A   Overcast
4:55 AM 50.5 °F - 50.5 °F 100% 30.03 in 0.2 mi Calm Calm - N/A Fog Fog
5:55 AM 50.0 °F - 50.0 °F 100% 30.05 in 0.2 mi West 5.8 mph - N/A Fog Fog
6:09 AM 50.0 °F - 50.0 °F 100% 30.05 in 0.2 mi West 5.8 mph - N/A Fog Fog
6:55 AM 50.0 °F - 50.0 °F 100% 30.06 in 0.2 mi Calm Calm - N/A Fog Fog
7:10 AM 50.0 °F - 50.0 °F 100% 30.05 in 0.2 mi Calm Calm - N/A Fog Fog
7:27 AM 50.0 °F - 50.0 °F 100% 30.06 in 0.2 mi Calm Calm - N/A Fog Fog
7:55 AM 49.8 °F - 49.8 °F 100% 30.06 in 0.2 mi WSW 4.6 mph - N/A Fog Fog
8:35 AM 50.0 °F - 50.0 °F 100% 30.08 in 0.2 mi Calm Calm - N/A Fog Fog
8:55 AM 50.5 °F - 50.5 °F 100% 30.08 in 0.4 mi WSW 3.5 mph - N/A Fog Fog
9:23 AM 51.8 °F - 51.8 °F 100% 30.09 in 0.8 mi West 3.5 mph - N/A   Overcast
9:35 AM 51.8 °F - 51.8 °F 100% 30.09 in 1.0 mi Calm Calm - N/A   Overcast
9:39 AM 51.8 °F - 51.8 °F 100% 30.09 in 1.5 mi WNW 3.5 mph - N/A   Overcast
9:55 AM 52.2 °F - 52.2 °F 100% 30.10 in 1.8 mi West 3.5 mph - N/A   Overcast
9:57 AM 51.8 °F - 51.8 °F 100% 30.10 in 1.8 mi Calm Calm - N/A   Overcast
10:12 AM 51.8 °F - 51.8 °F 100% 30.10 in 3.0 mi Calm Calm - N/A   Overcast
10:29 AM 53.6 °F - 53.6 °F 100% 30.10 in 7.0 mi SW 5.8 mph - N/A   Mostly Cloudy
10:55 AM 55.8 °F - 55.8 °F 100% 30.10 in 7.0 mi Calm Calm - N/A   Mostly Cloudy
11:55 AM 62.1 °F - 51.4 °F 68% 30.07 in 10.0 mi WSW 5.8 mph - N/A   Mostly Cloudy
12:55 PM 67.6 °F - 51.4 °F 56% 30.04 in 10.0 mi Variable 6.9 mph - N/A   Mostly Cloudy
1:49 PM 69.8 °F - 51.8 °F 53% 30.02 in 10.0 mi SSW 3.5 mph - N/A   Light Drizzle
1:55 PM 68.2 °F - 52.5 °F 57% 30.02 in 10.0 mi SW 4.6 mph - 0.00 in   Mostly Cloudy
2:55 PM 71.2 °F - 52.7 °F 52% 30.01 in 10.0 mi South 6.9 mph - 0.00 in   Scattered Clouds
3:55 PM 70.0 °F - 52.9 °F 55% 30.02 in 10.0 mi WSW 4.6 mph - N/A   Scattered Clouds
4:55 PM 68.7 °F - 53.1 °F 57% 30.03 in 10.0 mi Calm Calm - N/A   Mostly Cloudy
5:55 PM 65.1 °F - 52.9 °F 65% 30.05 in 10.0 mi South 5.8 mph - N/A   Scattered Clouds
6:55 PM 62.6 °F - 52.3 °F 69% 30.06 in 10.0 mi South 3.5 mph - N/A   Scattered Clouds
7:55 PM 57.4 °F - 52.5 °F 84% 30.06 in 10.0 mi SE 3.5 mph - N/A   Clear
8:55 PM 54.3 °F - 50.7 °F 88% 30.07 in 10.0 mi SSE 5.8 mph - N/A   Partly Cloudy
9:55 PM 51.8 °F - 50.4 °F 95% 30.09 in 10.0 mi Calm Calm - N/A   Clear
10:55 PM 50.9 °F - 50.4 °F 98% 30.09 in 10.0 mi Calm Calm - N/A   Clear
11:55 PM 49.6 °F - 49.3 °F 99% 30.09 in 10.0 mi Calm Calm - N/A   Scattered Clouds